Tracking 28790 objects as of 19-Apr-2024
HD Live streaming from Space Station
objects crossing your sky now

COSMOS 2215

Track COSMOS 2215 now!
10-day predictions
COSMOS 2215 is classified as:


NORAD ID: 22186
Int'l Code: 1992-068E
Perigee: 1,415.9 km
Apogee: 1,436.6 km
Inclination: 82.6 °
Period: 114.2 minutes
Semi major axis: 7797 km
RCS: 1.0707 m2 (large)
Launch date: October 20, 1992
Source: Commonwealth of Independent States (former USSR) (CIS)
Launch site: PLESETSK MISSILE AND SPACE COMPLEX (PKMTR)
Your satellite tracking list
Your tracking list is empty




NASA's NSSDC Master Catalog

Two Line Element Set (TLE):
1 22186U 92068E   24109.58870407  .00000038  00000-0  15429-3 0  9994
2 22186  82.6002 153.7843 0013260 157.4612 202.7063 12.60925274449351
Source of the keplerian elements: AFSPC